• In Netherlands
  • List of Countries
  • For 7 days
  • Water Temperature
  • Satellite Maps
  • Weather Map
  • Weather Widgets
  • user-avatar
    Login

    Hourly Weather Djelfa

    Today, 27 February, Monday

    Time Temperature Precipitation Wind Pressure Humidity
    00:00 +5°C° 0 mm 0 mps 664 mmHg 61%
    01:00 +6°C° 0 mm 1 mps 664 mmHg 61%
    02:00 +6°C° 0 mm 1 mps 664 mmHg 62%
    03:00 +6°C° 0 mm 1 mps 664 mmHg 62%
    04:00 +6°C° 0 mm 1 mps 664 mmHg 65%
    05:00 +4°C° 0 mm 2 mps 663 mmHg 67%
    06:00 +4°C° 0 mm 2 mps 663 mmHg 69%
    07:00 +6°C° 0 mm 2 mps 664 mmHg 64%
    08:00 +8°C° 0 mm 2 mps 665 mmHg 58%
    09:00 +9°C° 0 mm 2 mps 665 mmHg 52%
    10:00 +11°C° 0 mm 3 mps 665 mmHg 45%
    11:00 +13°C° 0 mm 3 mps 665 mmHg 38%
    12:00 +14°C° 0 mm 3 mps 666 mmHg 31%
    13:00 +16°C° 0 mm 3 mps 665 mmHg 30%
    14:00 +17°C° 0 mm 3 mps 665 mmHg 28%
    15:00 +17°C° 0 mm 3 mps 665 mmHg 26%
    16:00 +16°C° 0 mm 3 mps 664 mmHg 30%
    17:00 +15°C° 0 mm 2 mps 664 mmHg 34%
    18:00 +13°C° 0 mm 1 mps 664 mmHg 37%
    19:00 +13°C° 0 mm 1 mps 664 mmHg 41%
    20:00 +12°C° 0 mm 1 mps 664 mmHg 44%
    21:00 +11°C° 0 mm 1 mps 664 mmHg 48%
    22:00 +10°C° 0 mm 1 mps 664 mmHg 52%
    23:00 +10°C° 0 mm 1 mps 664 mmHg 56%

    Tomorrow, 28 February, Tuesday

    Time Temperature Precipitation Wind Pressure Humidity
    00:00 +9°C° 0 mm 1 mps 663 mmHg 60%
    01:00 +9°C° 0 mm 1 mps 663 mmHg 62%
    02:00 +8°C° 0 mm 1 mps 663 mmHg 65%
    03:00 +8°C° 0 mm 1 mps 663 mmHg 67%
    04:00 +7°C° 0 mm 2 mps 663 mmHg 69%
    05:00 +7°C° 0 mm 2 mps 663 mmHg 71%
    06:00 +6°C° 0 mm 2 mps 663 mmHg 72%
    07:00 +8°C° 0 mm 3 mps 663 mmHg 63%
    08:00 +10°C° 0 mm 3 mps 664 mmHg 55%
    09:00 +11°C° 0 mm 4 mps 665 mmHg 46%
    10:00 +13°C° 0 mm 4 mps 665 mmHg 41%
    11:00 +14°C° 0 mm 4 mps 665 mmHg 37%
    12:00 +15°C° 0 mm 4 mps 665 mmHg 32%
    13:00 +17°C° 0 mm 4 mps 665 mmHg 30%
    14:00 +18°C° 0 mm 4 mps 664 mmHg 28%
    15:00 +17°C° 0 mm 5 mps 664 mmHg 26%
    16:00 +17°C° 0 mm 4 mps 664 mmHg 30%
    17:00 +16°C° 0 mm 3 mps 664 mmHg 34%
    18:00 +13°C° 0 mm 3 mps 664 mmHg 38%
    19:00 +12°C° 0 mm 3 mps 664 mmHg 45%
    20:00 +11°C° 0 mm 3 mps 664 mmHg 51%
    21:00 +10°C° 0 mm 3 mps 664 mmHg 58%
    22:00 +9°C° 0 mm 3 mps 664 mmHg 61%
    23:00 +9°C° 0 mm 3 mps 664 mmHg 64%

    Day after tomorrow, 1 March, Wednesday

    Time Temperature Precipitation Wind Pressure Humidity
    00:00 +8°C° 0 mm 3 mps 664 mmHg 68%
    01:00 +7°C° 0 mm 3 mps 664 mmHg 66%
    02:00 +7°C° 0 mm 3 mps 664 mmHg 65%
    03:00 +5°C° 0 mm 3 mps 664 mmHg 63%
    04:00 +5°C° 0 mm 3 mps 664 mmHg 63%
    05:00 +4°C° 0 mm 3 mps 664 mmHg 62%
    06:00 +4°C° 0 mm 3 mps 664 mmHg 62%
    07:00 +5°C° 0 mm 3 mps 665 mmHg 55%
    08:00 +8°C° 0 mm 3 mps 666 mmHg 48%
    09:00 +9°C° 0 mm 3 mps 666 mmHg 42%
    10:00 +11°C° 0 mm 3 mps 666 mmHg 38%
    11:00 +14°C° 0 mm 2 mps 667 mmHg 34%
    12:00 +15°C° 0 mm 2 mps 667 mmHg 30%
    13:00 +16°C° 0 mm 2 mps 667 mmHg 28%
    14:00 +16°C° 0 mm 2 mps 666 mmHg 27%
    15:00 +18°C° 0 mm 1 mps 666 mmHg 26%
    16:00 +16°C° 0 mm 1 mps 666 mmHg 30%
    17:00 +14°C° 0 mm 1 mps 666 mmHg 33%
    18:00 +13°C° 0 mm 1 mps 665 mmHg 36%
    19:00 +13°C° 0 mm 1 mps 666 mmHg 38%
    20:00 +12°C° 0 mm 1 mps 666 mmHg 40%
    21:00 +11°C° 0 mm 1 mps 666 mmHg 41%
    22:00 +11°C° 0 mm 1 mps 666 mmHg 41%
    23:00 +11°C° 0 mm 1 mps 666 mmHg 40%

    2 March, Thursday

    Time Temperature Precipitation Wind Pressure Humidity
    00:00 +9°C° 0 mm 2 mps 666 mmHg 39%
    01:00 +9°C° 0 mm 2 mps 666 mmHg 38%
    02:00 +8°C° 0 mm 2 mps 665 mmHg 37%
    03:00 +8°C° 0 mm 2 mps 665 mmHg 36%
    04:00 +8°C° 0 mm 2 mps 665 mmHg 35%
    05:00 +7°C° 0 mm 2 mps 665 mmHg 35%
    06:00 +8°C° 0 mm 1 mps 665 mmHg 35%
    07:00 +9°C° 0 mm 2 mps 666 mmHg 33%
    08:00 +12°C° 0 mm 2 mps 667 mmHg 30%
    09:00 +15°C° 0 mm 2 mps 667 mmHg 27%
    10:00 +16°C° 0 mm 3 mps 667 mmHg 26%
    11:00 +18°C° 0 mm 4 mps 667 mmHg 25%
    12:00 +19°C° 0 mm 5 mps 667 mmHg 24%
    13:00 +20°C° 0 mm 5 mps 667 mmHg 24%
    14:00 +20°C° 0 mm 5 mps 666 mmHg 23%
    15:00 +20°C° 0 mm 5 mps 666 mmHg 23%
    16:00 +19°C° 0 mm 5 mps 666 mmHg 25%
    17:00 +18°C° 0 mm 4 mps 665 mmHg 27%
    18:00 +17°C° 0 mm 4 mps 665 mmHg 30%
    19:00 +15°C° 0 mm 4 mps 665 mmHg 31%
    20:00 +14°C° 0 mm 4 mps 665 mmHg 32%
    21:00 +13°C° 0 mm 4 mps 665 mmHg 34%
    22:00 +13°C° 0 mm 4 mps 665 mmHg 35%
    23:00 +12°C° 0 mm 4 mps 665 mmHg 35%

    3 March, Friday

    Time Temperature Precipitation Wind Pressure Humidity
    00:00 +12°C° 0 mm 4 mps 664 mmHg 36%
    01:00 +11°C° 0 mm 3 mps 664 mmHg 37%
    02:00 +11°C° 0 mm 3 mps 664 mmHg 39%
    03:00 +10°C° 0 mm 3 mps 663 mmHg 40%
    04:00 +10°C° 0 mm 3 mps 663 mmHg 42%
    05:00 +9°C° 0 mm 2 mps 663 mmHg 43%
    06:00 +9°C° 0 mm 2 mps 663 mmHg 45%
    07:00 +10°C° 0 mm 2 mps 663 mmHg 41%
    08:00 +13°C° 0 mm 2 mps 664 mmHg 37%
    09:00 +14°C° 0 mm 3 mps 665 mmHg 33%
    10:00 +16°C° 0 mm 2 mps 665 mmHg 30%
    11:00 +18°C° 0 mm 2 mps 664 mmHg 27%
    12:00 +19°C° 0 mm 2 mps 664 mmHg 24%
    13:00 +20°C° 0 mm 3 mps 664 mmHg 23%
    14:00 +20°C° 0 mm 3 mps 664 mmHg 22%
    15:00 +21°C° 0 mm 3 mps 663 mmHg 21%
    16:00 +20°C° 0 mm 3 mps 663 mmHg 23%
    17:00 +19°C° 0 mm 3 mps 663 mmHg 26%
    18:00 +18°C° 0 mm 2 mps 663 mmHg 28%
    19:00 +17°C° 0 mm 2 mps 663 mmHg 33%
    20:00 +15°C° 0 mm 2 mps 663 mmHg 38%
    21:00 +14°C° 0 mm 2 mps 663 mmHg 43%
    22:00 +13°C° 0 mm 2 mps 662 mmHg 47%
    23:00 +13°C° 0 mm 1 mps 662 mmHg 51%

    4 March, Saturday

    Time Temperature Precipitation Wind Pressure Humidity
    00:00 +12°C° 0 mm 1 mps 662 mmHg 54%
    01:00 +12°C° 0 mm 1 mps 661 mmHg 54%
    02:00 +11°C° 0 mm 1 mps 661 mmHg 54%
    03:00 +11°C° 0 mm 1 mps 661 mmHg 53%
    04:00 +11°C° 0 mm 1 mps 661 mmHg 51%
    05:00 +10°C° 0 mm 2 mps 661 mmHg 49%
    06:00 +10°C° 0 mm 2 mps 661 mmHg 47%
    07:00 +12°C° 0 mm 3 mps 661 mmHg 40%
    08:00 +14°C° 0 mm 3 mps 662 mmHg 34%
    09:00 +17°C° 0 mm 4 mps 662 mmHg 28%
    10:00 +17°C° 0 mm 6 mps 662 mmHg 25%
    11:00 +19°C° 0 mm 9 mps 662 mmHg 21%
    12:00 +22°C° 0 mm 11 mps 662 mmHg 18%
    13:00 +21°C° 0 mm 11 mps 662 mmHg 18%
    14:00 +21°C° 0 mm 11 mps 661 mmHg 18%
    15:00 +21°C° 0 mm 11 mps 661 mmHg 19%
    16:00 +18°C° 0 mm 11 mps 661 mmHg 27%
    17:00 +14°C° 0 mm 11 mps 661 mmHg 36%
    18:00 +12°C° 0 mm 11 mps 661 mmHg 44%
    19:00 +11°C° 0 mm 11 mps 661 mmHg 52%
    20:00 +9°C° 0 mm 11 mps 662 mmHg 60%
    21:00 +7°C° 0 mm 10 mps 662 mmHg 68%
    22:00 +6°C° 0 mm 10 mps 663 mmHg 65%
    23:00 +6°C° 0 mm 10 mps 663 mmHg 62%
    Show more